DW8673 Jerrabomberra AU current weather conditions

sailwx.info

Air temperature 10.6° C
Dewpoint 8.3° C

Last reported at 2017-Nov-23 18:08 UTC.
Time now 2017-Nov-23 18:44 UTC

Location: S 35°23' E 149°12'.
View on Google Maps.

See reports from other nearby stations

  
Tides and Currents Weather Stations Pressure Air Temp Water Temp Dewpoint Dewpoint Depression Visibility Wind Speed Wind Dir Waves Ship Positions
date/time (UTC)wind fromknots sea level pressurealtimeterstation pressurevisibilityair tempwater tempwave heightnotes
2017-Nov-23 18:08 10.6
2017-Nov-23 18:03 045 10.6
2017-Nov-23 17:48 006 10.6
2017-Nov-23 17:43 10.6
2017-Nov-23 17:38 10.6
2017-Nov-23 17:33 10.6
2017-Nov-23 17:18 315 10.6
2017-Nov-23 17:13 297 10.6
2017-Nov-23 17:08 10.6
2017-Nov-23 17:03 11.1
2017-Nov-23 16:48 338 11.1
2017-Nov-23 16:43 338 11.1
2017-Nov-23 16:38 045 11.1
2017-Nov-23 16:33 045 11.1
2017-Nov-23 16:18 068 11.1
2017-Nov-23 16:13 338 11.1
2017-Nov-23 16:08 338 11.1
2017-Nov-23 16:03 135 11.1
2017-Nov-23 15:48 11.7
2017-Nov-23 15:43 11.7
2017-Nov-23 15:38 11.7
2017-Nov-23 15:33 338 11.7
2017-Nov-23 15:18 090 11.7
2017-Nov-23 15:13 090 11.7
2017-Nov-23 15:08 090 11.7
2017-Nov-23 15:03 068 11.7
2017-Nov-23 14:48 338 12.2
2017-Nov-23 14:43 045 12.2
2017-Nov-23 14:38 12.2
2017-Nov-23 14:33 12.2
2017-Nov-23 14:18 022 11.7
2017-Nov-23 14:13 180 11.7
2017-Nov-23 14:08 180 12.2
2017-Nov-23 14:03 325 12.2
2017-Nov-23 13:48 12.2
2017-Nov-23 13:43 12.2
2017-Nov-23 13:38 12.2
2017-Nov-23 13:33 12.2
2017-Nov-23 13:18 12.2
2017-Nov-23 13:13 338 12.8
2017-Nov-23 13:08 338 12.8
2017-Nov-23 13:03 350 12.8
2017-Nov-23 12:48 022 12.8
2017-Nov-23 12:43 338 12.8
2017-Nov-23 12:38 350 12.8
2017-Nov-23 12:13 022 13.3
2017-Nov-23 12:08 351 13.3
2017-Nov-23 12:03 351 13.3
2017-Nov-23 11:48 045 13.9
2017-Nov-23 11:43 045 0 gusting 1 13.3
2017-Nov-23 11:38 350 13.3
2017-Nov-23 11:33 13.3
2017-Nov-23 11:18 045 13.9
2017-Nov-23 11:13 045 13.9
2017-Nov-23 11:08 14.4
2017-Nov-23 11:03 039 14.4
2017-Nov-23 10:48 078 15.0
2017-Nov-23 10:43 060 0 gusting 1 15.0
2017-Nov-23 10:38 017 15.0
2017-Nov-23 10:33 068 15.6
2017-Nov-23 10:18 060 15.6
2017-Nov-23 10:13 044 0 gusting 0 15.6
2017-Nov-23 10:08 045 15.6
2017-Nov-23 10:03 057 0 gusting 0 15.6
2017-Nov-23 09:48 068 16.1
2017-Nov-23 09:43 068 0 gusting 0 16.1
2017-Nov-23 09:38 020 0 gusting 1 16.1
2017-Nov-23 09:33 072 16.7
2017-Nov-23 09:18 16.1
2017-Nov-23 09:13 045 16.1
2017-Nov-23 09:08 045 16.7
2017-Nov-23 09:03 320 0 gusting 4 16.7
2017-Nov-23 08:48 210 17.8
2017-Nov-23 08:43 221 1 gusting 2 18.3
2017-Nov-23 08:38 170 1 gusting 5 18.9
2017-Nov-23 08:33 035 1 gusting 5 18.9
2017-Nov-23 08:08 270 20.0
2017-Nov-23 07:48 015 1 gusting 4 20.0
2017-Nov-23 07:43 105 0 gusting 2 20.0
2017-Nov-23 07:38 182 20.6
2017-Nov-23 07:33 045 0 gusting 1 20.6
2017-Nov-23 07:18 180 20.6
2017-Nov-23 07:13 178 2 gusting 5 20.6
2017-Nov-23 07:08 196 0 gusting 4 21.1
2017-Nov-23 07:03 184 1 gusting 5 21.1
2017-Nov-23 06:48 166 1 gusting 4 21.1
2017-Nov-23 06:43 158 0 gusting 1 21.1
2017-Nov-23 06:38 168 0 gusting 0 21.1
2017-Nov-23 06:33 193 0 gusting 5 20.6
2017-Nov-23 06:18 164 1 gusting 4 20.6
2017-Nov-23 06:13 227 2 gusting 4 21.1
2017-Nov-23 06:08 190 1 gusting 4 21.1
2017-Nov-23 06:03 193 1 gusting 4 21.1
2017-Nov-23 05:48 197 0 gusting 6 20.0
2017-Nov-23 05:43 195 1 gusting 1 19.4
2017-Nov-23 05:38 116 1 gusting 4 19.4
2017-Nov-23 05:33 149 2 gusting 4 19.4
2017-Nov-23 05:18 262 0 gusting 1 18.9
2017-Nov-23 05:13 173 0 gusting 5 18.9
2017-Nov-23 05:08 256 1 gusting 2 18.9
2017-Nov-23 05:03 290 18.3
2017-Nov-23 04:48 206 1 gusting 2 17.8
2017-Nov-23 04:43 172 0 gusting 4 17.8
2017-Nov-23 04:38 196 3 gusting 7 17.8
2017-Nov-23 04:33 144 2 gusting 6 18.3
2017-Nov-23 04:18 179 1 gusting 5 18.3
2017-Nov-23 04:13 150 0 gusting 4 18.3
2017-Nov-23 04:08 172 0 gusting 2 18.3
2017-Nov-23 04:03 214 0 gusting 2 18.3
2017-Nov-23 03:48 192 17.8
2017-Nov-23 03:43 271 17.2
2017-Nov-23 03:38 315 17.2
2017-Nov-23 03:33 070 0 gusting 1 17.2
2017-Nov-23 03:18 180 17.2
2017-Nov-23 03:13 206 17.8
2017-Nov-23 03:08 117 1 gusting 4 18.3
2017-Nov-23 03:03 158 2 gusting 6 18.9
2017-Nov-23 02:48 171 3 gusting 6 23.3
2017-Nov-23 02:43 171 3 gusting 6 23.9
2017-Nov-23 02:38 181 1 gusting 6 25.0
2017-Nov-23 02:33 227 0 gusting 4 26.1
2017-Nov-23 02:18 040 2 gusting 2 27.2
2017-Nov-23 02:13 228 2 gusting 5 28.3
2017-Nov-23 02:08 296 2 gusting 5 29.4
2017-Nov-23 02:03 311 1 gusting 5 31.1
2017-Nov-23 01:48 341 2 gusting 4 30.6
2017-Nov-23 01:43 232 2 gusting 5 30.0
2017-Nov-23 01:38 221 2 gusting 4 30.0
2017-Nov-23 01:33 351 1 gusting 8 30.0
2017-Nov-23 01:18 315 3 gusting 6 29.4
2017-Nov-23 01:13 324 2 gusting 5 29.4
2017-Nov-23 01:08 297 2 gusting 5 28.9
2017-Nov-23 01:03 309 2 gusting 6 28.9
2017-Nov-23 00:48 285 2 gusting 5 28.9
2017-Nov-23 00:43 220 2 gusting 6 28.9
2017-Nov-23 00:38 258 1 gusting 4 28.9
2017-Nov-23 00:33 264 1 gusting 5 28.9
2017-Nov-23 00:18 203 1 gusting 2 28.3
2017-Nov-23 00:13 237 1 gusting 4 28.3
2017-Nov-23 00:08 002 1 gusting 5 28.3
2017-Nov-23 00:03 290 2 gusting 6 27.8
2017-Nov-22 23:48 062 1 gusting 6 27.8
2017-Nov-22 23:43 281 2 gusting 5 27.8
2017-Nov-22 23:38 308 2 gusting 5 28.3
2017-Nov-22 23:33 267 0 gusting 2 28.3
2017-Nov-22 23:18 253 1 gusting 2 27.2
2017-Nov-22 23:13 312 1 gusting 2 26.7
2017-Nov-22 23:08 214 0 gusting 1 26.7
2017-Nov-22 23:03 171 1 gusting 4 26.1
2017-Nov-22 22:48 003 1 gusting 2 25.6
2017-Nov-22 22:38 202 1 gusting 2 25.0
2017-Nov-22 22:33 291 2 gusting 5 25.0
2017-Nov-22 22:18 280 1 gusting 1 23.9
2017-Nov-22 22:13 272 0 gusting 2 23.9
2017-Nov-22 22:08 324 2 gusting 4 23.3
2017-Nov-22 22:03 283 0 gusting 5 23.3
2017-Nov-22 21:48 292 0 gusting 1 22.8
2017-Nov-22 21:43 048 22.2
2017-Nov-22 21:38 137 0 gusting 4 21.7
2017-Nov-22 21:33 314 2 gusting 6 21.7
2017-Nov-22 21:18 148 2 gusting 5 20.6
2017-Nov-22 21:13 200 0 gusting 4 20.6
2017-Nov-22 21:08 169 0 gusting 1 20.0
2017-Nov-22 21:03 322 0 gusting 6 20.0
2017-Nov-22 20:48 254 1 gusting 1 18.3
2017-Nov-22 20:43 097 0 gusting 2 17.8
2017-Nov-22 20:38 323 0 gusting 2 16.7
2017-Nov-22 20:33 180 0 gusting 4 16.1
2017-Nov-22 20:08 247 1 gusting 4 13.9
2017-Nov-22 20:03 286 1 gusting 2 13.9
2017-Nov-22 19:48 338 13.3
2017-Nov-22 19:43 338 13.3
2017-Nov-22 19:39 338 12.8
2017-Nov-22 19:33 035 12.8
2017-Nov-22 19:18 045 12.8
2017-Nov-22 19:13 029 0 gusting 0 12.8
2017-Nov-22 19:08 342 12.8
2017-Nov-22 19:03 017 13.3
2017-Nov-22 18:48 061 13.3
2017-Nov-22 18:38 13.9
2017-Nov-22 18:33 037 13.9
2017-Nov-22 18:13 253 0 gusting 1 14.4
2017-Nov-22 18:08 332 0 gusting 0 15.0
2017-Nov-22 18:03 019 0 gusting 1 15.0
2017-Nov-22 17:48 300 15.0
2017-Nov-22 17:43 315 15.0
2017-Nov-22 17:38 180 15.0
2017-Nov-22 17:18 123 15.0
2017-Nov-22 17:13 158 15.0
2017-Nov-22 17:08 158 15.0
2017-Nov-22 17:03 158 15.0
2017-Nov-22 16:48 160 15.0
2017-Nov-22 16:43 158 15.0
2017-Nov-22 16:33 029 15.0
2017-Nov-22 16:08 158 15.0
2017-Nov-22 16:03 116 0 gusting 0 15.6
2017-Nov-22 15:48 024 0 gusting 0 15.6
2017-Nov-22 15:38 045 15.6
2017-Nov-22 15:33 097 0 gusting 1 15.6
2017-Nov-22 15:18 178 0 gusting 1 16.1
2017-Nov-22 15:13 191 16.1
2017-Nov-22 15:08 054 0 gusting 2 16.1
2017-Nov-22 15:03 164 0 gusting 1 16.1
2017-Nov-22 14:48 181 16.1
2017-Nov-22 14:43 196 0 gusting 1 16.1
2017-Nov-22 14:38 202 0 gusting 1 16.1
2017-Nov-22 14:33 183 1 gusting 4 16.1
2017-Nov-22 14:18 212 0 gusting 1 16.1
2017-Nov-22 14:13 159 0 gusting 2 16.1
2017-Nov-22 14:08 202 0 gusting 1 16.1
2017-Nov-22 14:03 192 16.1
2017-Nov-22 13:48 185 1 gusting 2 16.1
2017-Nov-22 13:43 206 1 gusting 5 16.1
2017-Nov-22 13:38 149 1 gusting 2 16.1
2017-Nov-22 13:33 169 0 gusting 4 16.1
2017-Nov-22 13:18 189 0 gusting 0 16.7
2017-Nov-22 13:13 354 16.7
2017-Nov-22 13:08 161 0 gusting 1 16.7
2017-Nov-22 13:03 158 0 gusting 1 16.7
2017-Nov-22 12:48 221 16.7
2017-Nov-22 12:43 181 0 gusting 5 16.7
2017-Nov-22 12:38 216 0 gusting 4 16.7
2017-Nov-22 12:13 203 1 gusting 4 16.7
2017-Nov-22 12:08 170 1 gusting 2 16.7
2017-Nov-22 12:03 222 1 gusting 5 16.7
2017-Nov-22 11:48 241 0 gusting 2 16.7
2017-Nov-22 11:43 191 1 gusting 2 16.7
2017-Nov-22 11:38 198 1 gusting 2 16.7
2017-Nov-22 11:33 218 0 gusting 5 16.7
2017-Nov-22 11:18 175 0 gusting 5 16.7
2017-Nov-22 11:13 149 0 gusting 1 16.7
2017-Nov-22 11:08 203 0 gusting 1 16.7
2017-Nov-22 11:03 241 1 gusting 2 17.2
2017-Nov-22 10:48 231 1 gusting 2 17.2
2017-Nov-22 10:43 206 1 gusting 4 17.2
2017-Nov-22 10:38 196 1 gusting 4 17.2
2017-Nov-22 10:33 198 1 gusting 6 17.8
2017-Nov-22 10:18 196 1 gusting 4 17.8
2017-Nov-22 10:13 213 2 gusting 5 17.8
2017-Nov-22 10:08 199 2 gusting 4 18.3
2017-Nov-22 10:03 270 0 gusting 5 18.3
2017-Nov-22 09:48 200 1 gusting 4 18.3
2017-Nov-22 09:43 301 2 gusting 6 18.9
2017-Nov-22 09:38 237 1 gusting 5 18.9
2017-Nov-22 09:33 187 1 gusting 5 18.9
2017-Nov-22 09:18 218 1 gusting 4 19.4
2017-Nov-22 09:13 262 2 gusting 4 19.4
2017-Nov-22 09:08 253 1 gusting 4 20.0
2017-Nov-22 09:03 203 0 gusting 5 20.0
2017-Nov-22 08:48 333 2 gusting 6 21.1
2017-Nov-22 08:43 166 0 gusting 2 21.1
2017-Nov-22 08:38 250 1 gusting 2 21.7
2017-Nov-22 08:33 202 1 gusting 6 22.2
2017-Nov-22 08:18 227 1 gusting 4 23.3
2017-Nov-22 08:13 191 1 gusting 5 23.9
2017-Nov-22 08:08 197 2 gusting 5 24.4
2017-Nov-22 08:03 170 2 gusting 4 25.0
2017-Nov-22 07:48 126 0 gusting 2 25.0
2017-Nov-22 07:43 138 25.0
2017-Nov-22 07:38 149 1 gusting 2 25.6
2017-Nov-22 07:33 217 1 gusting 4 25.6
2017-Nov-22 07:18 275 1 gusting 2 26.1
2017-Nov-22 07:13 052 0 gusting 4 26.7
2017-Nov-22 07:08 309 1 gusting 4 26.1
2017-Nov-22 07:03 282 0 gusting 2 26.1
2017-Nov-22 06:48 260 1 gusting 5 26.7
2017-Nov-22 06:43 284 2 gusting 4 26.7
2017-Nov-22 06:38 320 2 gusting 6 26.7
2017-Nov-22 06:33 239 1 gusting 4 27.2
2017-Nov-22 06:18 308 1 gusting 2 26.7
2017-Nov-22 06:13 320 0 gusting 1 26.7
2017-Nov-22 06:08 260 1 gusting 4 26.1
2017-Nov-22 06:03 026 0 gusting 4 26.7
2017-Nov-22 05:48 070 2 gusting 6 26.7
2017-Nov-22 05:43 305 1 gusting 5 26.7
2017-Nov-22 05:38 294 2 gusting 5 26.7
2017-Nov-22 05:33 127 1 gusting 6 27.2
2017-Nov-22 05:18 298 1 gusting 4 27.2
2017-Nov-22 05:13 100 3 gusting 6 27.2
2017-Nov-22 05:08 150 1 gusting 4 27.2
2017-Nov-22 05:03 239 2 gusting 6 27.2
2017-Nov-22 04:48 250 1 gusting 4 27.8
2017-Nov-22 04:43 001 1 gusting 4 27.8
2017-Nov-22 04:38 254 0 gusting 6 27.2
2017-Nov-22 04:33 287 1 gusting 5 27.8
2017-Nov-22 04:18 315 1 gusting 4 27.8
2017-Nov-22 04:13 208 2 gusting 6 28.3
2017-Nov-22 04:08 057 3 gusting 6 28.3
2017-Nov-22 03:48 257 0 gusting 1 28.9
2017-Nov-22 03:43 220 1 gusting 4 28.9
2017-Nov-22 03:38 087 2 gusting 6 28.9
2017-Nov-22 03:33 330 1 gusting 6 28.9
2017-Nov-22 03:18 135 1 gusting 5 28.9
2017-Nov-22 03:13 270 1 gusting 2 28.9
2017-Nov-22 03:08 256 2 gusting 5 28.9
2017-Nov-22 03:03 216 0 gusting 5 28.9
2017-Nov-22 02:48 045 1 gusting 5 28.3
2017-Nov-22 02:43 073 2 gusting 4 28.3
2017-Nov-22 02:38 302 2 gusting 7 28.3
2017-Nov-22 02:33 220 2 gusting 6 28.3
2017-Nov-22 02:18 008 2 gusting 6 28.3
2017-Nov-22 02:13 286 0 gusting 2 28.3
2017-Nov-22 02:08 099 0 gusting 2 28.3
2017-Nov-22 02:03 283 2 gusting 5 28.3
2017-Nov-22 01:48 191 1 gusting 5 27.8
2017-Nov-22 01:43 318 1 gusting 4 28.3
2017-Nov-22 01:38 122 0 gusting 2 27.8
2017-Nov-22 01:33 109 1 gusting 4 27.8
2017-Nov-22 01:18 016 1 gusting 4 27.8
2017-Nov-22 01:13 278 0 gusting 1 27.8
2017-Nov-22 01:08 288 0 gusting 4 27.2
2017-Nov-22 01:03 304 1 gusting 6 26.7
2017-Nov-22 00:48 187 1 gusting 4 26.7
2017-Nov-22 00:43 166 1 gusting 2 26.7
2017-Nov-22 00:38 283 1 gusting 4 26.1
2017-Nov-22 00:33 002 2 gusting 6 26.1
2017-Nov-22 00:18 219 1 gusting 2 26.1
2017-Nov-21 23:18 065 1 gusting 2 24.4
2017-Nov-21 23:13 211 0 gusting 1 23.9
2017-Nov-21 23:08 250 1 gusting 5 23.9
2017-Nov-21 23:03 137 1 gusting 5 23.3
2017-Nov-21 22:48 248 0 gusting 2 22.8
2017-Nov-21 22:43 329 1 gusting 4 22.8
2017-Nov-21 22:38 308 1 gusting 2 22.8
2017-Nov-21 22:33 159 1 gusting 4 22.2
2017-Nov-21 22:18 126 0 gusting 2 21.1
2017-Nov-21 22:13 298 1 gusting 2 20.6
2017-Nov-21 22:08 109 3 gusting 5 20.0
2017-Nov-21 22:03 172 2 gusting 5 20.0
2017-Nov-21 21:48 166 1 gusting 5 17.8
2017-Nov-21 21:43 054 0 gusting 4 16.7
2017-Nov-21 21:38 039 0 gusting 1 15.6
2017-Nov-21 21:33 180 0 gusting 2 15.6
2017-Nov-21 21:18 188 15.0
2017-Nov-21 21:13 242 0 gusting 1 14.4
2017-Nov-21 21:08 294 0 gusting 4 14.4
2017-Nov-21 21:03 317 14.4
2017-Nov-21 20:48 338 0 gusting 1 13.9
2017-Nov-21 20:43 187 13.3
2017-Nov-21 20:38 315 13.3
2017-Nov-21 20:33 071 12.8
2017-Nov-21 20:18 045 11.1
2017-Nov-21 20:13 045 11.1
2017-Nov-21 20:08 045 10.6
2017-Nov-21 20:03 045 10.0
2017-Nov-21 19:48 022 9.4
2017-Nov-21 19:43 022 8.9
2017-Nov-21 19:38 8.9
2017-Nov-21 19:33 343 8.9
2017-Nov-21 19:18 022 8.9
2017-Nov-21 19:13 022 8.9
2017-Nov-21 19:08 112 8.9
2017-Nov-21 19:03 076 8.9
2017-Nov-21 18:48 022 8.3
2017-Nov-21 18:43 022 8.3
2017-Nov-21 18:38 338 8.3
2017-Nov-21 18:33 345 8.3
2017-Nov-21 18:18 022 8.3
2017-Nov-21 18:13 022 8.3
2017-Nov-21 18:08 338 8.9
2017-Nov-21 18:03 338 8.9